Powrót do katalogu

STARLINK-11127

AktywnyŁącznośćVLEO
NORAD 60119·PAYLOAD·🇺🇸 United States

Wystrzelony Jun 24, 2024 z Vandenberg Space Force Base

Loading…

Następne Przeloty (najbliższe 24 godziny)

TLE

ŚwieżeSource: CelesTrak SupGP

Epoka: Sep 15, 2026, 03:04 UTC

1 60119C 24118G   26258.12826389 -.00043092  00000+0 -35491-3 0  2587
2 60119  53.1572   7.3699 0001009  65.3170  61.2783 15.69734754    17

Śledź STARLINK-11127 w czasie rzeczywistym z AllMySat

Download on the App Store